SCP
0 0 0 0 0 0 0 0 0 0 0 0 0 0 0 0 0 0 0 0 0 0
0 0 0 0 0 0 0 0 0 0 0 0 0 0 0 0 0 0 0 0 0 0
0 0 0 0 0 0 0 0 0 0 0 0 0 0 0 0 0 0 0 0 0 0
0 0 0 0 0 0 0 0 0 0 0 0 0 0 0 0 0 0 0 0 0 0
0 0 0 0 0 0 0 0 0 0 0 0 0 0 0 0 0 0 0 0 0 0
0 0 0 0 0 0 0 0 0 0 0 0 0 0 0 0 0 0 0 0 0 0
0 0 0 0 0 0 0 0 0 0 0 0 0 0 0 0 0 0 0 0 0 0
0 0 0 0 0 0 0 0 0 0 0 0 0 0 0 0 0 0 0 0 0 0
0 0 0 0 0 0 0 0 0 0 0 0 0 0 0 0 0 0 0 0 0 0
0 0 0 0 0 0 0 0 0 0 0 0 0 0 0 0 0 0 0 0 0 0
0 0 0 0 0 0 0 0 0 0 0 0 0 0 0 0 0 0 0 0 0 0
0 0 0 0 0 0 0 0 0 0 0 0 0 0 0 0 0 0 0 0 0 0
0 0 0 0 0 0 0 0 0 0 0 0 0 0 0 0 0 0 0 0 0 0
0 0 0 0 0 0 0 0 0 0 0 0 0 0 0 0 0 0 0 0 0 0
Wind_Speed_500mb
83 85 86 87 87 88 87 86 84 80 77 72 65 58 48 38 34 37 39 38 36 33
86 90 90 86 88 89 84 84 79 79 78 74 69 61 53 43 36 40 43 42 39 35
90 91 90 86 87 89 89 86 79 82 81 76 70 63 55 47 41 44 46 46 41 38
98 99 98 93 89 90 90 88 83 85 84 79 72 65 59 53 49 49 48 47 42 40
103 106 107 104 98 95 94 88 84 87 86 82 76 70 65 59 54 52 49 46 43 39
101 109 113 112 107 102 98 90 89 91 91 88 80 75 69 63 58 55 51 46 43 39
100 104 108 111 111 108 103 94 95 96 93 90 83 79 75 68 61 56 52 47 44 40
94 98 106 107 103 105 103 96 93 94 96 93 91 87 79 72 63 59 54 49 44 42
103 99 105 99 100 100 96 92 91 97 100 99 96 88 81 74 66 60 55 50 47 40
103 105 100 97 96 96 93 91 95 103 104 102 95 88 84 76 66 60 54 51 47 39
102 99 92 94 94 91 92 94 99 104 104 101 97 93 86 78 67 59 54 51 42 39
91 91 92 93 93 92 94 96 100 101 103 102 96 92 84 74 65 57 49 45 44 39
85 88 84 86 88 88 89 92 99 99 100 98 96 89 80 74 62 51 51 51 42 41
73 77 77 78 78 82 89 94 98 96 97 99 93 81 75 72 58 56 56 49 42 31
Wind_Direction_500mb
226 231 234 237 237 236 237 237 233 230 229 228 230 232 235 245 260 272 280 285 286 280
228 231 232 235 237 238 239 239 236 235 232 229 229 231 233 239 253 268 276 278 278 277
230 232 234 235 237 238 239 239 235 233 232 230 230 230 231 237 245 256 264 272 272 271
235 236 235 236 236 238 239 240 235 231 230 230 231 230 232 237 245 253 260 265 266 267
242 242 240 238 237 237 237 236 235 230 229 230 229 230 233 237 244 251 257 259 261 263
246 246 244 242 241 239 237 234 231 229 229 229 228 229 233 236 242 250 254 255 256 257
247 249 248 245 242 239 238 234 231 230 228 228 228 229 231 234 239 247 251 253 252 256
251 250 249 245 243 240 237 234 231 228 226 227 227 228 229 232 238 243 247 250 250 257
247 247 246 243 240 237 233 231 229 226 226 225 226 226 228 232 236 241 245 248 249 258
247 244 243 241 236 233 231 228 227 225 225 224 225 225 228 233 235 239 244 248 252 262
243 241 240 238 235 230 227 226 225 225 225 223 222 223 227 231 233 236 240 247 257 271
245 241 238 234 232 227 225 223 222 224 225 223 221 222 226 229 230 234 244 253 257 268
243 240 237 233 230 228 225 225 223 222 223 223 221 221 225 228 230 236 242 247 254 260
249 244 241 236 232 229 225 222 223 221 220 219 219 219 223 229 229 237 240 243 246 251
Wind_Speed_850mb
83 85 86 87 87 88 87 86 84 80 77 72 65 58 48 38 34 37 39 38 36 33
86 90 90 86 88 89 84 84 79 79 78 74 69 61 53 43 36 40 43 42 39 35
90 91 90 86 87 89 89 86 79 82 81 76 70 63 55 47 41 44 46 46 41 38
98 99 98 93 89 90 90 88 83 85 84 79 72 65 59 53 49 49 48 47 42 40
103 106 107 104 98 95 94 88 84 87 86 82 76 70 65 59 54 52 49 46 43 39
101 109 113 112 107 102 98 90 89 91 91 88 80 75 69 63 58 55 51 46 43 39
100 104 108 111 111 108 103 94 95 96 93 90 83 79 75 68 61 56 52 47 44 40
94 98 106 107 103 105 103 96 93 94 96 93 91 87 79 72 63 59 54 49 44 42
103 99 105 99 100 100 96 92 91 97 100 99 96 88 81 74 66 60 55 50 47 40
103 105 100 97 96 96 93 91 95 103 104 102 95 88 84 76 66 60 54 51 47 39
102 99 92 94 94 91 92 94 99 104 104 101 97 93 86 78 67 59 54 51 42 39
91 91 92 93 93 92 94 96 100 101 103 102 96 92 84 74 65 57 49 45 44 39
85 88 84 86 88 88 89 92 99 99 100 98 96 89 80 74 62 51 51 51 42 41
73 77 77 78 78 82 89 94 98 96 97 99 93 81 75 72 58 56 56 49 42 31
Wind_Direction_850mb
226 231 234 237 237 236 237 237 233 230 229 228 230 232 235 245 260 272 280 285 286 280
228 231 232 235 237 238 239 239 236 235 232 229 229 231 233 239 253 268 276 278 278 277
230 232 234 235 237 238 239 239 235 233 232 230 230 230 231 237 245 256 264 272 272 271
235 236 235 236 236 238 239 240 235 231 230 230 231 230 232 237 245 253 260 265 266 267
242 242 240 238 237 237 237 236 235 230 229 230 229 230 233 237 244 251 257 259 261 263
246 246 244 242 241 239 237 234 231 229 229 229 228 229 233 236 242 250 254 255 256 257
247 249 248 245 242 239 238 234 231 230 228 228 228 229 231 234 239 247 251 253 252 256
251 250 249 245 243 240 237 234 231 228 226 227 227 228 229 232 238 243 247 250 250 257
247 247 246 243 240 237 233 231 229 226 226 225 226 226 228 232 236 241 245 248 249 258
247 244 243 241 236 233 231 228 227 225 225 224 225 225 228 233 235 239 244 248 252 262
243 241 240 238 235 230 227 226 225 225 225 223 222 223 227 231 233 236 240 247 257 271
245 241 238 234 232 227 225 223 222 224 225 223 221 222 226 229 230 234 244 253 257 268
243 240 237 233 230 228 225 225 223 222 223 223 221 221 225 228 230 236 242 247 254 260
249 244 241 236 232 229 225 222 223 221 220 219 219 219 223 229 229 237 240 243 246 251